Погода в Кузовке

Россия / Тульская область     53°38′48″N   38°06′57″E
темп.,
°C
ветер,
м/с
пор.,
м/с
влажн.,
%
обл.,
%
осадки,
мм/ч
давл.,
гПа
погр.,
м
10 мая, пн
пн1000:00+3ссз37906 0.0 1020121
03:00+2ссз413871 0.0 1022267
06:00+3ссз513824 0.0 1024342
09:00+8с812564 0.0 10251223
12:00+11с8104928 0.0 10251369
15:00+12ссв911507 0.0 10241474
18:00+11ссв71260100 0.0 10241062
21:00+8ссв7156896 0.0 1025508
11 мая, вт
вт1100:00+8ссв7157498 0.0 1025507
03:00+8ссв6148180 0.0 1024405
06:00+7ссв7168798 0.0 1024419
09:00+12св9147843 0.0 1023554
12:00+17всв9126943 0.0 1023967
15:00+18в8127395 0.8 10231453
18:00+12юв499387 1.6 1025438
21:00+9вюв35910 1.6 102678
12 мая, ср
ср1200:00+7юв338946 0.0 102744
03:00+7юв1188100 0.0 102711
06:00+8св2588100 0.0 1026144
09:00+8ссв3695100 1.1 1025252
12:00+8ссз3696100 2.3 1021376
15:00+8юз4598100 8.0 1019302
18:00+8ююв388916 0.2 1021548
21:00+6в489576 0.2 1022165
13 мая, чт
чт1300:00+7в61494100 0.0 1021335
03:00+9в7159292 0.1 1020406
06:00+9вюв41295100 0.2 1020370
09:00+14юв477928 0.2 1019491
12:00+18ю576435 0.3 10181439
15:00+18ююв466657 0.5 10181186
18:00+18ююв36724 0.3 1018525
21:00+13юв2283100 0.3 101911
14 мая, пт
пт1400:00+12вюв338790 0.0 101932
03:00+12вюв3695100 0.0 1018105
06:00+13вюв499584 0.0 1018212
09:00+18юв6107957 0.0 1017520
12:00+22юв71165100 0.0 10161229
15:00+23юв71165100 0.0 10151306
18:00+22ююв61272100 0.0 1013735
21:00+18ююв5148793 0.8 1013366